{"data":{"norad_id":52553,"epoch":"2026-07-01T21:51:43.490592Z","epoch_age_seconds":7026176,"freshness":"OLD","line1":"1 52553U 22051W   26182.91092003  .09929172  12615-4  19265-3 0  9997","line2":"2 52553  53.2054 306.7588 0007526 308.9478  51.0902 16.46764132229108","mean_motion":16.46764132,"eccentricity":0.0007526,"inclination_deg":53.2054,"raan_deg":306.7588,"arg_perigee_deg":308.9478,"mean_anomaly_deg":51.0902,"bstar":0.00019265,"rev_number":22910,"period_min":87.444216935373,"perigee_km":142.95912718953,"apogee_km":152.78207382982,"semimajor_km":6526.0076005097,"source":"CELESTRAK","updated_at":"2026-07-02T09:00:32.261123Z"}}